TimeMDT,TemperatureF,Dew PointF,Humidity,Sea Level PressureIn,VisibilityMPH,Wind Direction,Wind SpeedMPH,Gust SpeedMPH,PrecipitationIn,Events,Conditions,WindDirDegrees,DateUTC
12:53 AM,34.0,30.0,85,29.99,10.0,Calm,Calm,-,N/A,,Overcast,0,2012-10-28 06:53:00
1:41 AM,33.8,30.2,87,29.95,5.0,Calm,Calm,-,0.01,Snow,Light Snow,0,2012-10-28 07:41:00
1:53 AM,33.1,30.9,92,29.98,5.0,Calm,Calm,-,0.01,Snow,Light Snow,0,2012-10-28 07:53:00
2:01 AM,33.8,30.2,87,29.95,8.0,Calm,Calm,-,0.00,,Overcast,0,2012-10-28 08:01:00
2:53 AM,34.0,30.9,89,29.97,8.0,NW,3.5,-,0.00,,Overcast,310,2012-10-28 08:53:00
3:53 AM,34.0,32.0,92,29.96,9.0,Calm,Calm,-,N/A,,Overcast,0,2012-10-28 09:53:00
4:53 AM,35.1,32.0,89,29.94,10.0,North,3.5,-,0.00,,Overcast,350,2012-10-28 10:53:00
5:53 AM,37.9,33.1,83,29.95,10.0,North,3.5,-,0.00,,Overcast,350,2012-10-28 11:53:00
6:53 AM,42.1,34.0,73,29.94,10.0,Variable,3.5,-,0.00,,Overcast,0,2012-10-28 12:53:00
7:53 AM,43.0,34.0,71,29.95,10.0,WSW,5.8,-,N/A,,Overcast,240,2012-10-28 13:53:00
8:53 AM,41.0,34.0,76,29.96,10.0,South,3.5,-,N/A,,Mostly Cloudy,180,2012-10-28 14:53:00
9:53 AM,43.0,36.0,76,29.96,10.0,NW,4.6,-,N/A,,Clear,320,2012-10-28 15:53:00
10:53 AM,48.9,36.0,61,29.93,10.0,WNW,8.1,-,N/A,,Partly Cloudy,300,2012-10-28 16:53:00
11:53 AM,50.0,35.1,57,29.92,10.0,West,19.6,28.8,N/A,,Clear,260,2012-10-28 17:53:00
12:53 PM,51.1,35.1,54,29.91,10.0,WSW,12.7,19.6,N/A,,Clear,240,2012-10-28 18:53:00
1:53 PM,52.0,34.0,50,29.91,10.0,WSW,11.5,-,N/A,,Clear,250,2012-10-28 19:53:00
2:53 PM,52.0,32.0,47,29.91,10.0,WSW,15.0,25.3,N/A,,Clear,250,2012-10-28 20:53:00
3:53 PM,52.0,30.9,45,29.91,10.0,West,24.2,32.2,N/A,,Clear,260,2012-10-28 21:53:00
4:53 PM,51.1,32.0,48,29.91,10.0,WSW,18.4,27.6,N/A,,Clear,250,2012-10-28 22:53:00
5:53 PM,51.1,33.1,50,29.92,10.0,West,11.5,17.3,N/A,,Clear,260,2012-10-28 23:53:00
6:53 PM,50.0,34.0,54,29.93,10.0,Variable,4.6,-,N/A,,Clear,0,2012-10-29 00:53:00
7:53 PM,48.9,33.1,54,29.92,10.0,SW,8.1,-,N/A,,Clear,230,2012-10-29 01:53:00
8:53 PM,46.9,33.1,59,29.95,10.0,SW,9.2,-,N/A,,Clear,230,2012-10-29 02:53:00
9:53 PM,46.0,33.1,61,29.96,10.0,SSW,5.8,-,N/A,,Partly Cloudy,200,2012-10-29 03:53:00
10:53 PM,46.0,33.1,61,29.94,10.0,Calm,Calm,-,N/A,,Overcast,0,2012-10-29 04:53:00
11:53 PM,46.0,34.0,63,29.94,10.0,Calm,Calm,-,N/A,,Overcast,0,2012-10-29 05:53:00